PRSC-S1

Last updated on Mon Sep 21 2026 00:02:46 GMT+0000 (Coordinated Universal Time)

1 65055U 25164A 26263.57856789 .00002627 00000+0 18357-3 0 9996 2 65055 41.1294 110.2937 0008094 280.6820 79.3083 15.07093234 62826
UTC large
Height (km)
Speed (km/s)
/
Latitude / Longitude
Inclination (degrees)
Orbital Period (minutes)
Azimuth
Elevation
Range (km)
Doppler Factor

Next 0 passes for location: London (51.5072 / 0.1276)

No passes found over London.
PRSC-S1